Weather History for Russellville, AR

Change the Weather History Date:

Wednesday, February 5, 2014

  Actual Average (KHOT) Record (KHOT)
Temperature  
Mean Temperature 28 °F -  
Max Temperature 34 °F 53 °F 73 °F (2008)
Min Temperature 19 °F 32 °F 11 °F (1989)
Degree Days  
Heating Degree Days 38    
Moisture  
Dew Point 22 °F    
Average Humidity 75    
Maximum Humidity 89    
Minimum Humidity 64    
Precipitation  
Precipitation 0.00 in - - ()
Sea Level Pressure  
Sea Level Pressure 30.32 in    
Wind  
Wind Speed 9 mph (NW)    
Max Wind Speed 20 mph    
Max Gust Speed 25 mph    
Visibility 10 miles    
Events      
Averages and records for this station are not official NWS values.
T = Trace of Precipitation, MM = Missing Value Source: NWS Daily Summary

Daily Weather History Graph

Daily Weather History Graph

Search for Another Location

Airport:

Trip Planner

Search our weather history database for the weather conditions in past years. The results will help you decide how hot, cold, wet, or windy it might be!

Date:

Astronomy

Feb. 05, 2014 Rise Set
Actual Time 7:08 AM CST 5:44 PM CST
Civil Twilight 6:41 AM CST 6:11 PM CST
Nautical Twilight 6:11 AM CST 6:41 PM CST
Astronomical Twilight 5:41 AM CST 7:11 PM CST
Moon 10:39 AM CST (2/5) No Moon Set
Length of Visible Light 11h 29m
Length of Day
10h 36m
Waxing Crescent, 39% of the Moon is Illuminated
Feb 5
Waxing Crescent
Feb 6
First Quarter
Feb 14
Full
Feb 22
Last Quarter
Mar 1
New

Hourly Weather History & Observations

Time (CST) Temp. Windchill Dew Point Humidity Pressure Visibility Wind Dir Wind Speed Gust Speed Precip Events Conditions
12:06 AM 33.8 °F 30.8 °F 30.2 °F 87% 30.00 in 9.0 mi Variable 3.5 mph - N/A   Overcast
12:53 AM 34.0 °F 26.0 °F 30.9 °F 89% 30.02 in 9.0 mi West 10.4 mph 17.3 mph N/A   Overcast
1:23 AM 33.8 °F 27.7 °F 30.2 °F 87% 30.03 in 9.0 mi West 6.9 mph - N/A   Overcast
1:53 AM 34.0 °F 28.0 °F 30.9 °F 89% 30.04 in 10.0 mi Variable 6.9 mph - N/A   Overcast
2:35 AM 33.8 °F 27.7 °F 30.2 °F 87% 30.05 in 10.0 mi Variable 6.9 mph - N/A   Overcast
2:53 AM 34.0 °F 26.6 °F 30.0 °F 85% 30.06 in 10.0 mi West 9.2 mph 16.1 mph N/A   Overcast
3:36 AM 33.8 °F 25.8 °F 30.2 °F 87% 30.10 in 10.0 mi West 10.4 mph - N/A   Overcast
3:53 AM 34.0 °F 25.5 °F 30.0 °F 85% 30.11 in 10.0 mi West 11.5 mph 19.6 mph N/A   Overcast
4:36 AM 33.8 °F 25.3 °F 28.4 °F 81% 30.14 in 10.0 mi WNW 11.5 mph 19.6 mph N/A   Overcast
4:50 AM 33.8 °F 24.3 °F 28.4 °F 81% 30.15 in 10.0 mi WNW 13.8 mph 20.7 mph N/A   Overcast
4:53 AM 33.1 °F 23.9 °F 28.0 °F 82% 30.15 in 10.0 mi WNW 12.7 mph - N/A   Overcast
5:53 AM 32.0 °F 22.5 °F 26.1 °F 79% 30.22 in 10.0 mi WNW 12.7 mph 19.6 mph N/A   Overcast
6:07 AM 30.2 °F 19.8 °F 24.8 °F 80% 30.24 in 10.0 mi WNW 13.8 mph 21.9 mph N/A   Overcast
6:53 AM 30.0 °F 17.5 °F 21.9 °F 72% 30.27 in 10.0 mi NW 19.6 mph 25.3 mph N/A   Overcast
7:20 AM 28.4 °F 18.5 °F 19.4 °F 69% 30.30 in 10.0 mi NNW 11.5 mph 18.4 mph N/A   Scattered Clouds
7:53 AM 27.0 °F 18.0 °F 19.0 °F 72% 30.33 in 10.0 mi NNW 9.2 mph 21.9 mph N/A   Mostly Cloudy
8:53 AM 26.1 °F 15.6 °F 17.1 °F 69% 30.38 in 10.0 mi NNW 11.5 mph 19.6 mph N/A   Mostly Cloudy
9:37 AM 26.6 °F 15.7 °F 17.6 °F 69% 30.40 in 10.0 mi NW 12.7 mph - N/A   Mostly Cloudy
9:53 AM 27.0 °F 16.1 °F 17.1 °F 66% 30.42 in 10.0 mi NW 12.7 mph 19.6 mph N/A   Mostly Cloudy
10:23 AM 28.4 °F 21.2 °F 19.4 °F 69% 30.44 in 10.0 mi NW 6.9 mph - N/A   Overcast
10:50 AM 28.4 °F 19.1 °F 19.4 °F 69% 30.43 in 10.0 mi NW 10.4 mph 19.6 mph N/A   Overcast
10:53 AM 28.9 °F 18.2 °F 19.0 °F 67% 30.43 in 10.0 mi NW 13.8 mph 19.6 mph N/A   Overcast
11:53 AM 30.0 °F 18.7 °F 19.9 °F 66% 30.42 in 10.0 mi NNW 16.1 mph 21.9 mph N/A   Mostly Cloudy
12:36 PM 30.2 °F 20.8 °F 19.4 °F 64% 30.42 in 10.0 mi NNW 11.5 mph - N/A   Mostly Cloudy
12:53 PM 30.9 °F 21.2 °F 21.9 °F 69% 30.41 in 10.0 mi NNW 12.7 mph - N/A   Mostly Cloudy
1:00 PM 30.2 °F 21.3 °F 21.2 °F 69% 30.40 in 10.0 mi NW 10.4 mph - N/A   Mostly Cloudy
1:53 PM 32.0 °F 22.5 °F 21.9 °F 66% 30.41 in 10.0 mi NW 12.7 mph 17.3 mph N/A   Mostly Cloudy
2:03 PM 32.0 °F 22.5 °F 21.2 °F 64% 30.41 in 10.0 mi NW 12.7 mph - N/A   Mostly Cloudy
2:53 PM 32.0 °F 25.6 °F 21.9 °F 66% 30.42 in 10.0 mi WNW 6.9 mph - N/A   Scattered Clouds
3:53 PM 30.9 °F 21.7 °F 21.0 °F 67% 30.43 in 10.0 mi WNW 11.5 mph - N/A   Mostly Cloudy
4:53 PM 28.0 °F 19.3 °F 21.9 °F 78% 30.45 in 9.0 mi West 9.2 mph - N/A   Overcast
5:53 PM 27.0 °F 20.5 °F 21.0 °F 78% 30.49 in 10.0 mi Variable 5.8 mph - N/A   Overcast
6:53 PM 25.0 °F 15.5 °F 19.0 °F 78% 30.53 in 10.0 mi West 9.2 mph 18.4 mph N/A   Overcast
7:53 PM 24.1 °F 15.2 °F 18.0 °F 77% 30.53 in 10.0 mi WNW 8.1 mph - N/A   Mostly Cloudy
8:53 PM 24.1 °F 15.2 °F 17.1 °F 75% 30.52 in 10.0 mi NW 8.1 mph - N/A   Clear
9:53 PM 23.0 °F 13.1 °F 15.1 °F 72% 30.53 in 10.0 mi NNE 9.2 mph - N/A   Clear
10:53 PM 21.0 °F 11.4 °F 12.9 °F 71% 30.55 in 10.0 mi North 8.1 mph - N/A   Clear
11:53 PM 19.0 °F 11.1 °F 10.9 °F 71% 30.54 in 10.0 mi NE 5.8 mph - N/A   Clear